Location: Unspecified
(0.0000°N, 0.0000°E)
Time: 14:09:14
(UTC+00:00)

Tiros 1 despin weight - Pass Details

Date: 27 November 2019
Orbit: 594 x 642 km, 48.2° (Epoch: 08 December)

Event Time Altitude Azimuth Distance (km) Brightness Sun altitude
Rises 19:58:21 0° 286° (WNW) 2,878 ? -30.2°
Reaches altitude 10° 20:01:41 10° 261° (W) 1,987 ? -31.0°
Maximum altitude 20:04:03 14° 229° (SW) 1,749 ? -31.5°
Drops below altitude 10° 20:06:26 10° 198° (SSW) 2,005 ? -32.1°
Sets 20:09:51 0° 172° (S) 2,925 ? -32.8°
